Cloud_Cover
85 100 99 100 100 100 100 100 100 100 100 100 100 100 100 100 100 100 100 99 84 72 100 98 91 91 100 100 100 100 100 100 100 92 10 50 90 76 5 22 53 5 6
16 100 100 100 100 100 100 100 100 100 99 100 100 100 100 100 100 100 100 100 100 100 100 100 100 100 100 72 84 95 99 97 100 87 94 100 56 6 6 46 37 7 5
60 100 100 100 100 100 98 100 100 100 100 100 100 100 100 93 77 100 100 100 100 100 99 89 67 100 100 99 100 100 100 100 100 100 100 60 49 96 20 10 5 5 21
80 100 100 100 100 100 100 100 100 100 100 100 80 99 93 100 100 94 100 100 100 100 100 97 89 100 100 100 100 100 100 100 76 100 100 71 20 88 36 90 96 100 100
88 100 100 100 100 100 100 100 100 100 100 99 100 100 100 100 100 100 59 72 96 100 100 100 58 34 100 94 98 99 67 92 50 98 74 46 100 100 100 100 100 100 41
100 100 100 100 100 100 91 100 100 100 100 98 100 80 100 62 72 69 99 94 69 100 100 99 100 89 55 21 90 90 39 5 5 45 99 98 100 23 98 100 92 52 79
100 100 100 100 98 95 92 100 100 100 100 100 100 100 100 100 100 100 79 85 99 98 85 100 100 100 99 100 100 96 57 44 42 100 100 100 75 94 100 93 6 5 5
49 97 38 100 84 94 70 36 97 100 100 100 100 100 100 100 95 33 5 29 63 42 92 100 100 100 100 100 98 100 77 52 100 100 100 100 100 100 99 6 5 5 4
65 5 7 97 34 40 72 100 100 100 100 100 100 85 5 60 96 100 99 62 36 90 99 100 100 100 100 100 100 100 100 100 100 100 100 84 100 100 75 0 0 0 0
82 21 5 5 5 100 100 95 100 100 100 100 96 100 100 98 100 100 85 38 9 46 39 100 94 100 68 62 100 94 100 100 100 73 13 49 5 0 0 0 0 0 0
82 73 9 82 70 80 53 72 100 100 100 52 98 100 71 6 5 6 5 5 5 11 49 100 100 96 10 76 91 100 100 89 18 20 5 2 1 0 0 0 0 0 0
40 94 99 100 100 58 4 12 60 100 100 100 100 98 97 8 5 2 0 2 4 42 100 100 97 41 62 96 100 72 6 5 5 2 0 7 0 0 5 0 3 4 5
97 91 100 100 100 100 70 26 70 100 100 100 60 94 66 6 82 0 2 5 5 98 97 97 100 98 85 58 23 90 5 0 0 5 6 6 3 5 0 4 5 7 58
24 77 34 100 100 100 100 100 100 51 70 58 9 96 11 88 99 29 10 5 5 64 5 44 88 100 100 97 94 0 4 97 17 8 5 5 5 5 5 5 5 39 61
7 94 89 65 73 67 100 100 100 19 6 0 48 100 100 69 0 11 5 14 12 14 48 100 100 95 17 0 0 11 13 1 3 26 5 1 3 1 0 0 1 4 5
74 64 4 34 100 38 2 71 55 100 68 11 33 53 99 24 17 0 24 10 95 79 78 23 52 4 5 2 0 47 50 7 0 5 38 4 0 0 0 0 1 5 5
48 80 24 100 12 52 0 0 58 90 1 86 0 0 0 0 0 84 2 0 76 14 0 0 5 26 100 100 98 100 100 76 5 3 3 6 5 0 1 5 5 5 5
100 3 76 60 63 3 1 0 8 99 13 70 1 34 68 94 100 100 100 100 74 2 96 4 5 7 56 42 25 3 0 0 96 85 10 42 5 5 5 5 5 5 6
77 0 100 55 52 53 0 2 89 29 22 100 81 100 100 100 100 100 100 100 100 35 51 75 75 22 3 15 11 2 1 3 4 4 0 2 3 5 15 6 5 64 74
6 0 100 69 84 70 14 58 66 13 68 84 100 100 100 100 100 100 100 100 100 100 75 100 25 3 5 5 57 33 69 77 8 30 41 7 84 79 32 14 7 3 7
0 0 100 100 52 75 58 0 26 18 100 50 100 100 100 100 100 100 100 100 100 100 100 54 100 100 100 100 100 100 100 97 44 45 7 96 100 16 100 41 5 4 5
0 0 100 88 71 16 44 27 63 66 8 99 80 100 100 100 100 100 100 100 100 100 100 100 100 100 100 100 100 100 100 100 100 100 100 92 56 12 90 26 100 100 36
0 1 91 21 42 2 13 99 98 7 95 16 84 100 93 100 100 100 100 100 100 100 100 100 100 100 100 100 100 100 100 100 100 100 100 100 61 41 1 5 100 100 100
3 0 0 0 0 0 12 7 17 73 34 34 54 87 41 1 6 88 100 100 100 100 100 81 63 100 100 100 100 77 89 100 100 100 100 16 24 100 22 12 71 100 100
100 52 3 0 0 0 0 0 0 6 29 5 37 0 0 0 0 5 100 100 85 85 34 0 1 96 100 100 92 23 56 100 100 13 50 100 100 90 77 1 94 99 100
55 83 99 11 2 0 0 0 21 100 89 8 71 8 0 0 0 0 7 0 3 5 4 0 0 0 0 3 0 0 0 0 0 18 20 0 56 98 93 51 90 51 90